ギャラッド彗星

C/2010 E1 ( Garradd )

English version
Home page
Updated on October 3, 2010

---------------------------------------------------------------------

・ プロフィール

発見日 2010年3月11日
発見光度 17.4等
発見者 G. J. Garradd (Siding Spring)

・ 写真集

・ 軌道要素

Epoch 2009 Nov. 25.0 TT = JDT 2455160.5
T 2009 Nov. 7.96200 TT                                  MPC
q   2.6622310            (2000.0)            P               Q
z  +0.0091227      Peri.  296.98736     -0.39390223     -0.90206846
 +/-0.0000467      Node   169.29286     +0.66615969     -0.14795202
e   0.9757134      Incl.   71.69745     -0.63330269     +0.40544136

・ 光度変化

        m1 = 11.5 + 5 logΔ + 10.0 log r

---------------------------------------------------------------------

軌道要素はM.P.E.C. 2010-J82に掲載されたものです。
光度グラフはComet for Windowsで作成したものです。

---------------------------------------------------------------------

Copyright(C) Seiichi Yoshida (comet@aerith.net). All rights reserved.